This demonstration page uses our WeatherBlox Daily Observations layout. Learn more.

Left ArrowRight Arrow

36.19886, -115.1175

Hourly Observations for March 20, 2017

Temp ( °F °C ) Dew Point ( °F °C ) Humidity (%) Winds ( mph kmh ) Pressure ( in mb ) Visibility ( mi km ) Precip ( " mm )
12:53 am 00:53 Clear 73 22.8 34 1.1 24 24 SSW 6 9 29.98 1015 10 16 N/A
1:53 am 01:53 Clear 71 21.7 34 1.1 26 26 N N/A 29.97 1015 10 16 N/A
2:53 am 02:53 Clear 71 21.7 35 1.7 27 27 WSW 5 7 29.96 1015 10 16 N/A
3:53 am 03:53 Clear 67 19.4 36 2.2 32 32 ESE 3 6 29.95 1014 10 16 N/A
4:53 am 04:53 Clear 67 19.4 37 2.8 33 33 NW 3 6 29.96 1014 10 16 N/A
5:53 am 05:53 Clear 66 18.9 39 3.9 37 37 WNW 6 9 29.96 1014 10 16 N/A
6:53 am 06:53 Sunny 64 17.8 39 3.9 40 40 NNW 5 7 29.97 1015 10 16 N/A
7:53 am 07:53 Sunny 67 19.4 40 4.4 37 37 N N/A 29.98 1015 10 16 N/A
8:53 am 08:53 Sunny 72 22.2 38 3.3 29 29 SE 8 13 30.00 1016 10 16 N/A
9:53 am 09:53 Sunny 75 23.9 37 2.8 25 25 VRB 7 11 29.99 1016 10 16 N/A
10:53 am 10:53 Sunny 79 26.1 32 undefined 18 18 S 12 19 29.98 1015 10 16 N/A
11:53 am 11:53 Sunny 83 28.3 31 -0.6 15 15 S 20 31 29.96 1014 10 16 N/A
12:53 pm 12:53 Sunny 84 28.9 27 -2.8 12 12 S 15 24 29.94 1014 10 16 N/A
1:53 pm 13:53 Sunny 86 30 26 -3.3 11 11 S 13 20 29.91 1013 10 16 N/A
2:53 pm 14:53 Sunny 87 30.6 23 -5 9 9 SSW 15 24 29.88 1012 10 16 N/A
3:53 pm 15:53 Sunny 87 30.6 18 -7.8 8 8 SW 18 30 29.87 1012 10 16 N/A
4:53 pm 16:53 Sunny 85 29.4 13 -10.6 7 7 WSW 15 24 29.86 1011 10 16 N/A
5:53 pm 17:53 Sunny 84 28.9 14 -10 7 7 WSW 12 19 29.86 1011 10 16 N/A
6:53 pm 18:53 Clear 81 27.2 19 -7.2 10 10 W 7 11 29.88 1012 10 16 N/A
7:53 pm 19:53 Clear 78 25.6 22 -5.6 12 12 W 6 9 29.89 1012 10 16 N/A
8:53 pm 20:53 Clear 75 23.9 25 -3.9 15 15 W 5 7 29.90 1012 10 16 N/A
9:53 pm 21:53 Clear 73 22.8 27 -2.8 18 18 SW 7 11 29.90 1013 10 16 N/A
10:53 pm 22:53 Clear 74 23.3 27 -2.8 17 17 WSW 10 17 29.91 1013 10 16 N/A
11:53 pm 23:53 Clear 71 21.7 29 -1.7 21 21 S 7 11 29.90 1013 10 16 N/A

Powered by AerisWeather